This demonstration page uses our WeatherBlox Daily Observations layout. Learn more.

38.88101, -77.10428

Hourly Observations for January 12, 2016

Temp ( °F °C ) Dew Point ( °F °C ) Humidity (%) Winds ( mph kmh ) Pressure ( in mb ) Visibility ( mi km ) Precip ( " mm )
12:52 am 00:52 Mostly Cloudy 30 -1.1 12 -11.1 47 47 S 5 7 30.11 1020 10 16.0934 0 0
1:52 am 01:52 Mostly Cloudy 30 -1.1 12 -11.1 47 47 SE 3 6 30.09 1019 10 16.0934 0 0
2:52 am 02:52 Mostly Cloudy 30 -1.1 12 -11.1 47 47 SSE 3 6 30.09 1019 10 16.0934 0 0
3:52 am 03:52 Cloudy 30 -1.1 13 -10.6 49 49 SSE 5 7 30.06 1018 10 16.0934 0 0
4:52 am 04:52 Cloudy 31 -0.6 15 -9.4 52 52 S 8 13 30.03 1017 10 16.0934 0 0
5:52 am 05:52 Mostly Cloudy 32 0 17 -8.3 54 54 S 12 19 30.01 1016 10 16.0934 0 0
6:52 am 06:52 Mostly Cloudy 32 0 19 -7.2 59 59 S 14 22 29.98 1015 10 16.0934 0 0
7:52 am 07:52 Mostly Cloudy 34 1.1 21 -6.1 59 59 S 12 19 29.96 1015 10 16.0934 0 0
8:52 am 08:52 Mostly Cloudy 35 1.7 18 -7.8 50 50 S 14 22 29.93 1014 10 16.0934 0 0
9:52 am 09:52 Cloudy 37 2.8 17 -8.3 44 44 SSW 14 22 29.9 1013 10 16.0934 0 0
10:52 am 10:52 Cloudy 40 4.4 19 -7.2 43 43 SSW 15 24 29.87 1012 10 16.0934 0 0
11:52 am 11:52 Cloudy 41 5 19 -7.2 41 41 SSW 16 26 29.81 1010 10 16.0934 0 0
12:52 pm 12:52 Cloudy 44 6.7 20 -6.7 38 38 SSW 18 30 29.75 1008 10 16.0934 0 0
1:52 pm 13:52 Cloudy 44 6.7 19 -7.2 37 37 SSW 15 24 29.72 1007 10 16.0934 0 0
2:52 pm 14:52 Partly Cloudy 47 8.3 19 -7.2 33 33 SW 18 30 29.7 1006 10 16.0934 0 0
3:52 pm 15:52 Partly Cloudy 46 7.8 18 -7.8 32 32 WSW 18 30 29.71 1006 10 16.0934 0 0
4:52 pm 16:52 Mostly Cloudy 45 7.2 20 -6.7 37 37 WSW 8 13 29.71 1006 10 16.0934 0 0
5:52 pm 17:52 Mostly Cloudy 43 6.1 23 -5 45 45 W 20 31 29.73 1007 10 16.0934 0 0
6:52 pm 18:52 Mostly Cloudy 42 5.6 25 -3.9 51 51 W 18 30 29.77 1008 10 16.0934 0 0
7:36 pm 19:36 Cloudy with Light Rain 39 4 27 -3 61 61 NW 30 48 29.83 1010 9 14.48406 0 0
7:38 pm 19:38 Cloudy with Light Wintry Mix 37 3 28 -2 70 70 NW 25 41 29.83 1010 8 12.87472 0 0
7:45 pm 19:45 Cloudy with Light Snow 37 2.8 30 -1.1 76 76 WNW 18 30 29.83 1010 7 11.26538 0 0.0254
7:48 pm 19:48 Windy with Snow Likely 37 3 30 -1 75 75 WNW 20 31 29.83 1010 9 14.48406 0 0
7:52 pm 19:52 Cloudy 37 2.8 29 -1.7 73 73 WNW 17 28 29.84 1011 9 14.48406 0 0.0254
7:59 pm 19:59 Windy with Snow Likely 37 2.8 29 -1.7 73 73 WNW 24 39 29.85 1011 10 16.0934 0 0.0254
8:13 pm 20:13 Cloudy 36 2.2 29 -1.7 76 76 WNW 22 35 29.85 1011 9 14.48406 0 0.0254
8:52 pm 20:52 Mostly Cloudy 35 1.7 20 -6.7 54 54 WNW 21 33 29.87 1012 10 16.0934 0 0.0254
9:52 pm 21:52 Partly Cloudy 34 1.1 13 -10.6 42 42 WNW 21 33 29.93 1014 10 16.0934 0 0
10:52 pm 22:52 Mostly Clear 31 -0.6 6 -14.4 35 35 WNW 16 26 29.98 1015 10 16.0934 0 0
11:52 pm 23:52 Mostly Clear 28 -2.2 6 -14.4 39 39 WNW 13 20 30.01 1016 10 16.0934 0 0

Powered by AerisWeather